Theta_e
289 291 291 291 292 293 291 290 286 288 289 289 291 292 291 291 292 292 292 294 295 295 295 296 296 297 298 296 296 297 296 296 296 296 296 298 299 299 301 303 304 306 308 312
286 291 291 289 292 292 292 292 292 292 286 292 294 293 291 292 291 291 293 295 295 295 295 295 296 295 295 295 295 296 295 295 296 296 296 297 299 299 300 300 301 303 305 307
282 290 290 284 289 291 291 291 289 285 288 291 290 292 291 290 291 292 293 293 293 293 294 295 294 294 294 295 295 295 295 296 296 297 296 296 297 297 299 300 300 301 303 307
281 285 279 288 296 295 291 291 291 290 291 291 291 292 291 291 291 292 292 292 293 294 295 294 294 295 295 295 295 295 295 295 296 297 297 297 296 296 298 299 298 299 301 307
283 282 286 291 294 293 290 288 293 292 293 292 292 289 288 294 293 292 292 293 293 294 294 293 294 294 294 294 294 295 295 295 297 297 297 297 296 296 297 298 299 301 303 305
286 276 278 288 298 300 296 284 295 293 290 288 288 280 285 292 292 292 294 294 293 293 293 293 293 294 293 293 293 293 295 296 297 298 298 297 297 296 297 298 300 300 302 308
285 282 285 296 299 300 285 285 294 292 289 286 285 288 290 291 293 294 293 293 293 293 292 292 293 293 291 292 292 294 295 296 297 299 299 299 298 297 297 297 298 300 302 305
286 283 280 299 298 291 293 295 293 291 289 288 288 290 290 292 292 292 291 291 292 291 291 292 292 292 291 291 293 294 295 296 297 298 300 301 299 298 297 297 298 298 299 303
288 286 296 297 295 296 294 292 291 291 290 290 289 288 291 291 291 291 291 291 292 291 290 291 292 292 290 291 293 293 294 295 297 298 298 299 298 297 296 297 298 298 300 304
292 295 296 297 298 296 294 291 293 292 292 290 287 289 290 290 290 290 291 291 291 291 290 289 290 291 291 292 293 292 292 294 298 297 296 298 298 298 296 296 298 300 305 303
293 296 297 298 297 294 294 295 293 293 292 291 289 290 290 290 290 291 291 292 291 290 289 289 290 290 291 292 291 291 292 295 298 297 296 296 297 297 297 299 299 300 302 307
287 296 295 294 295 296 294 293 293 292 290 291 291 290 291 291 292 291 291 292 290 290 289 289 289 290 290 291 291 291 291 294 298 297 297 296 296 295 295 294 294 293 293 296
292 298 297 294 295 296 293 293 294 292 292 290 291 291 291 290 290 292 292 291 290 290 290 289 289 289 290 290 291 290 290 293 297 298 298 297 297 296 294 297 296 293 292 296
295 294 292 294 292 294 294 294 295 293 293 293 292 292 291 290 290 290 290 291 290 290 289 289 289 288 290 290 290 290 292 294 297 299 299 299 299 299 298 296 296 300 296 295
295 294 293 295 294 293 293 292 291 291 292 292 293 291 290 289 288 288 290 291 289 288 288 288 288 288 290 290 288 290 291 293 294 299 300 299 300 301 301 300 300 300 299 299
293 294 294 292 292 292 291 290 289 289 291 290 291 290 290 289 288 287 288 290 287 285 285 286 287 289 290 288 288 289 290 290 292 296 299 300 299 299 300 300 300 300 298 298
290 289 291 291 291 290 290 291 290 290 290 290 291 291 290 289 287 286 287 288 287 285 285 285 286 288 289 288 287 287 288 289 289 291 291 294 299 297 298 298 298 299 299 296
292 291 292 292 291 290 291 291 290 289 289 291 292 291 289 287 285 285 285 286 285 283 283 284 286 287 288 288 287 286 286 286 287 287 288 289 290 293 297 296 295 295 297 298
292 292 292 292 291 291 291 289 289 290 290 290 289 288 288 288 286 285 284 284 283 281 281 283 285 285 286 286 287 285 285 285 284 285 285 286 287 288 289 291 292 297 295 296
291 291 291 290 290 289 289 290 290 290 290 289 288 287 286 287 287 285 283 282 283 282 283 283 283 283 284 285 285 284 283 283 283 283 283 283 284 284 285 286 288 291 293 297
290 290 289 288 288 288 288 290 290 289 290 289 286 285 284 285 287 286 283 281 283 284 283 283 282 282 283 283 283 282 281 281 281 281 281 281 281 282 283 283 285 287 288 290
288 288 288 288 287 287 287 287 288 290 288 287 286 286 284 283 284 285 284 282 283 286 283 281 282 282 282 282 281 281 280 279 279 279 279 280 280 280 281 281 282 284 285 286
288 288 288 287 287 286 286 286 286 288 286 286 285 284 283 282 283 283 282 284 283 285 283 281 282 282 281 281 280 280 280 279 278 278 278 279 279 279 279 280 281 282 283 284
286 286 286 287 286 285 283 283 286 287 285 285 285 285 284 283 284 285 285 286 285 284 284 282 282 282 281 281 280 279 279 279 278 278 278 278 278 278 278 279 279 280 281 282
287 286 285 284 284 283 282 283 284 284 284 283 283 284 285 285 283 283 284 284 284 283 284 284 283 281 281 280 280 279 279 279 278 278 278 278 278 278 278 278 278 279 280 281
284 284 283 284 283 282 282 282 281 282 282 281 282 282 283 284 284 283 283 283 282 282 283 284 282 281 281 280 279 279 278 278 278 278 278 278 278 278 278 278 278 278 279 280
284 285 283 282 284 283 283 283 282 281 282 281 280 281 281 282 282 282 282 281 281 282 281 283 281 280 280 279 278 278 278 278 278 278 278 278 278 278 278 278 278 279 279 279
Wind_Speed
5 5 3 4 7 8 9 12 6 6 4 6 5 3 4 5 5 6 7 7 9 11 13 12 13 13 14 13 13 13 14 14 15 15 16 17 17 16 16 14 14 14 15 12
4 4 6 7 10 9 9 9 15 7 2 2 4 3 5 6 6 7 10 11 13 14 14 13 14 15 14 14 15 13 14 16 16 16 16 17 17 16 16 15 16 16 17 16
5 3 4 6 9 12 3 2 3 6 3 3 3 5 6 5 4 8 10 13 14 14 15 14 15 14 14 14 15 15 16 17 17 17 17 17 16 17 18 16 13 12 15 16
3 2 4 5 6 5 12 5 6 6 4 3 4 6 7 3 4 10 10 13 14 14 13 13 14 13 14 14 15 16 17 17 17 17 16 15 15 16 17 14 13 12 14 16
3 3 5 6 4 4 1 4 4 5 4 3 4 4 4 2 3 6 9 12 12 13 14 14 13 13 14 15 16 16 16 17 17 17 17 15 15 14 14 13 12 11 11 14
3 3 6 4 6 8 4 3 6 4 1 2 2 3 4 6 6 10 12 11 12 13 13 13 13 13 14 15 15 16 16 17 18 18 18 16 15 13 12 12 10 10 13 13
7 3 6 3 5 10 3 3 4 4 3 2 1 4 6 8 11 10 12 13 13 12 12 13 13 12 14 14 16 16 16 18 18 18 19 15 13 10 10 11 11 12 12 10
4 4 7 2 5 4 4 3 4 4 3 4 1 4 6 10 10 11 13 13 12 12 12 12 12 11 14 15 15 16 16 17 18 17 14 8 8 7 8 9 9 11 10 10
6 4 1 3 3 3 4 5 3 6 4 4 2 3 9 9 10 11 12 12 12 12 13 12 11 10 14 15 15 16 16 16 15 13 12 8 7 6 7 8 7 8 7 7
2 2 2 3 4 3 4 6 7 6 5 3 3 4 7 8 9 9 11 12 12 13 13 13 12 13 12 14 14 15 15 16 11 11 10 8 5 6 7 6 7 7 6 4
2 5 3 6 6 6 8 9 8 5 4 5 3 4 4 6 9 10 11 12 11 12 12 14 14 13 14 14 14 15 15 14 10 8 8 8 7 6 5 6 6 7 8 4
6 10 4 4 5 8 8 6 6 6 3 4 3 4 3 5 6 8 10 12 12 12 13 14 14 14 14 15 14 14 14 11 9 8 7 7 6 7 6 8 13 11 12 9
5 11 4 5 7 5 7 6 5 5 4 4 1 2 3 4 5 10 10 12 14 13 13 14 14 14 15 16 15 15 13 12 10 8 7 7 6 4 6 7 10 5 13 5
7 11 8 4 6 7 7 5 6 5 5 5 2 2 3 5 6 8 10 12 13 13 13 14 15 16 16 16 16 15 13 19 11 8 7 7 6 5 2 2 6 7 4 9
5 5 9 12 9 6 4 5 6 5 4 3 1 3 4 6 8 7 8 10 11 12 14 16 17 17 18 17 17 15 12 11 13 9 6 5 7 6 4 4 4 4 4 6
11 15 13 12 9 6 6 6 6 4 3 2 1 5 5 4 6 6 8 10 12 13 15 15 16 16 17 18 17 13 13 20 16 11 10 7 6 6 6 5 5 6 5 5
14 8 10 9 8 6 6 5 4 3 3 5 1 2 5 5 6 9 9 9 9 9 11 13 16 17 16 18 16 11 11 11 17 10 11 11 8 6 5 5 4 4 4 3
9 8 9 12 8 7 5 5 6 5 3 4 5 5 4 5 6 7 9 8 10 10 13 14 17 16 16 18 15 12 11 11 11 10 11 11 11 9 10 6 5 4 4 5
12 12 9 8 7 7 6 5 4 4 5 5 6 5 4 4 5 5 6 11 13 14 16 14 23 19 16 20 18 11 12 12 12 11 11 14 11 11 10 10 10 8 5 4
10 8 9 7 7 6 6 5 5 5 5 6 6 5 5 5 6 7 6 8 8 6 10 15 17 16 16 17 21 11 12 13 13 12 12 11 11 11 11 13 11 11 10 9
11 9 8 7 7 6 6 5 5 6 6 5 5 5 6 5 5 6 8 8 9 8 12 19 16 13 11 14 13 12 12 13 12 12 12 12 12 12 12 12 12 11 10 10
7 7 7 7 7 6 5 5 6 7 7 6 6 7 7 7 6 5 5 5 6 12 10 9 12 16 13 19 12 11 13 14 12 11 11 11 11 11 12 12 12 12 12 11
7 7 7 7 7 7 6 6 7 8 7 6 6 7 5 4 3 6 6 7 5 8 8 9 17 17 17 12 12 13 12 14 13 13 11 11 10 10 10 11 10 10 10 10
6 7 6 6 7 7 8 5 7 7 6 6 6 6 4 3 5 4 4 8 13 11 6 10 14 17 16 10 11 12 12 11 12 11 12 15 11 10 10 10 10 10 10 11
7 6 6 7 7 5 7 6 7 6 6 6 7 6 6 4 5 3 5 6 12 10 8 9 13 15 10 10 11 11 10 10 11 11 11 11 12 11 11 11 10 11 10 10
6 5 4 6 5 5 4 5 5 3 4 4 5 4 4 4 4 4 4 6 7 10 9 7 8 9 9 10 11 12 11 10 11 10 11 10 11 11 11 12 12 11 10 11
6 6 5 5 4 4 4 5 6 4 4 3 5 4 4 4 4 5 6 5 4 7 7 7 7 10 10 10 10 10 10 10 12 11 10 10 10 11 11 11 11 11 10 10
Wind_Direction
239 235 231 239 256 255 183 201 197 246 241 185 199 205 246 257 267 276 277 290 304 313 316 319 320 315 316 312 313 312 305 301 297 293 291 288 282 278 274 271 276 273 268 263
285 259 238 255 249 253 254 243 219 230 181 144 200 251 279 292 301 313 317 316 317 315 320 318 319 315 311 313 311 306 307 305 298 294 294 292 290 284 278 274 269 266 258 253
262 308 316 283 243 228 146 111 158 177 161 159 260 276 278 294 310 292 316 318 318 318 318 315 314 312 311 309 310 315 302 296 295 291 286 287 290 289 279 264 262 269 269 256
251 351 222 246 33 88 107 101 108 106 149 201 249 268 280 222 272 320 317 318 318 317 314 313 313 312 309 311 311 302 294 291 288 286 282 280 282 283 289 273 268 267 268 263
243 181 302 143 202 112 178 189 163 153 123 281 284 293 234 116 343 293 314 320 314 315 309 313 312 317 317 309 303 298 297 296 294 291 287 279 274 278 283 279 280 270 271 265
166 181 220 242 60 9 119 276 164 125 64 251 260 12 250 331 336 324 325 315 312 313 315 311 320 320 311 303 300 299 300 299 297 294 286 278 272 272 277 287 289 278 279 270
217 235 284 255 117 42 139 236 154 155 171 188 134 204 295 323 327 332 321 316 320 324 319 320 319 312 303 300 300 302 304 302 301 301 294 272 267 266 272 269 270 281 279 282
182 220 254 105 106 182 169 139 159 114 103 101 60 319 321 332 329 329 325 327 330 328 325 320 316 312 304 305 304 306 306 306 306 318 320 296 275 269 272 279 271 281 274 272
194 220 274 335 112 104 131 136 115 116 108 132 90 333 339 336 334 327 329 332 332 327 323 320 317 317 306 304 310 312 311 307 308 321 327 314 284 267 281 283 282 275 261 253
137 173 94 17 4 88 115 111 104 115 132 113 91 319 358 342 336 331 337 333 333 335 329 323 327 323 311 311 316 314 311 307 307 316 322 318 296 281 281 284 289 301 270 252
194 154 143 238 242 132 103 109 113 121 120 110 99 358 350 342 340 344 341 338 339 335 331 329 328 327 324 326 325 316 312 306 308 310 308 309 303 294 291 304 296 294 300 277
208 165 182 225 131 126 125 131 139 124 95 112 91 25 339 339 330 348 347 345 345 343 339 336 335 334 334 332 328 321 316 314 312 313 306 309 314 321 290 267 295 295 277 250
188 176 142 95 98 88 119 130 124 140 100 117 167 346 310 304 326 354 354 352 349 345 342 340 341 342 339 334 333 327 315 312 309 316 318 319 313 313 319 332 294 312 348 238
126 116 103 129 134 115 117 121 119 102 83 117 164 341 318 332 338 354 0 354 346 346 352 348 353 352 343 340 337 330 322 322 329 314 323 332 319 312 278 291 298 313 23 16
139 81 114 114 110 113 116 120 93 74 82 102 275 353 13 355 1 345 342 352 352 353 356 357 355 354 350 348 343 339 339 340 332 325 323 330 339 357 7 357 348 345 0 46
107 112 117 121 129 130 127 100 94 83 71 75 91 14 23 8 344 338 346 350 0 358 353 355 354 349 354 354 349 347 347 348 353 352 347 356 352 359 1 7 16 17 20 18
119 117 124 127 137 133 121 114 97 81 69 53 43 47 44 7 4 16 8 356 357 356 354 358 352 350 357 2 358 353 348 348 355 2 358 353 355 345 350 355 354 2 339 21
119 123 137 140 142 132 121 96 95 83 67 57 49 41 39 37 17 6 2 356 7 8 7 358 360 357 1 5 6 357 356 356 359 3 355 359 357 5 359 347 338 344 332 338
116 122 124 121 132 126 126 118 107 104 66 55 50 35 32 66 20 14 355 19 18 10 0 356 4 8 7 8 6 5 2 3 4 6 5 359 2 6 7 0 350 339 327 330
111 106 110 113 107 110 123 134 125 100 71 57 43 34 26 41 25 29 11 26 19 353 354 3 9 10 11 5 10 9 8 7 6 5 7 5 6 1 359 1 357 357 353 351
122 120 118 110 102 90 94 129 126 96 82 50 42 34 26 28 46 29 29 18 353 354 14 14 17 9 11 9 12 11 10 10 7 5 3 0 358 2 2 359 355 357 354 354
118 115 114 124 114 93 81 83 83 97 81 48 27 35 38 30 38 34 47 20 332 358 23 17 16 8 10 16 14 11 13 11 6 6 4 2 360 358 358 357 354 351 348 347
119 117 113 110 124 112 83 71 75 97 82 52 38 38 44 54 45 35 24 349 359 7 33 23 15 12 15 15 16 13 11 13 8 6 3 360 357 354 353 352 347 347 343 343
111 107 104 101 106 92 85 62 90 96 80 58 51 35 40 74 45 17 2 9 9 7 42 24 17 14 17 15 13 11 9 7 3 360 3 360 355 352 352 347 345 344 340 340
119 109 104 100 108 114 106 94 94 88 72 50 40 35 37 59 68 358 23 19 13 8 12 26 20 12 14 8 9 8 4 3 1 355 356 354 351 349 347 345 341 338 337 337
115 114 109 113 130 123 113 102 106 100 86 59 39 22 38 44 31 20 9 14 18 11 11 14 15 15 10 8 3 3 1 357 359 356 352 349 345 345 344 342 340 338 335 331
86 99 92 74 71 98 96 107 110 98 84 79 71 26 53 43 18 16 6 1 349 20 10 8 24 15 9 8 3 359 355 355 356 355 350 344 343 341 341 338 336 332 330 330